{"data":{"norad_id":65286,"epoch":"2026-05-25T03:19:59.651040Z","epoch_age_seconds":69878,"freshness":"FRESH","line1":"1 65286U 25184P   26145.13888485  .00004012  00000+0  28186-3 0  9994","line2":"2 65286  97.4469 197.6423 0002480 125.1385 235.0075 15.05660394 42758","mean_motion":15.05660394,"eccentricity":0.000248,"inclination_deg":97.4469,"raan_deg":197.6423,"arg_perigee_deg":125.1385,"mean_anomaly_deg":235.0075,"bstar":0.00028186,"rev_number":4275,"period_min":95.639096687297,"perigee_km":547.76122282263,"apogee_km":551.19732049337,"semimajor_km":6927.616271658,"source":"CELESTRAK","updated_at":"2026-05-25T13:38:20.732079Z"}}